There are multiple Weather-warnings   Click here for more information


Meteo18 Weather Cam more information Meteo18 Weather Cam


Thunder radar more information blitzortung!


warning for Snow/Ice more information rain snow radar


Visit our other weather sites:

Template documentation
and downloads

And another site



Weather Underground History page Text

Daily Summary for January 12, 2018 Units:  English    Metric   Both
« Previous Day
Next Day »
Daily Weekly Monthly Yearly Custom
  High: Low: Average:
Temperature: TemperatureC °F 3.4 °F 5.8 °F
Dew Point: DewpointC °F 3.0 °F 4.9 °F
Humidity: Humidity % 88 % 94 %
Wind Speed: WindSpeedKMH mph 0.0 mph 3.9 mph
Wind Gust: WindSpeedGustKMH mph - -
Wind:- - SSW
Pressure: PressurehPa in 1021.6 in -
Precipitation: 1.5 in    
Historical Graphs
 
 
Tabular Data for January 12, 2018
Time Temperature Dew Point Pressure Wind Wind Speed Wind Gust Humidity Rainfall Rate (Hourly)
TemperatureC °F DewpointC °F PressurehPa in Calm     Humidity % HourlyPrecipMM in
00:11 6.1 °F 5.5 °F 1021.6 in North 1.4 mph 8.0 mph 96 % 0.3 in
00:17 6.1 °F 5.4 °F 1021.6 in North 4.7 mph 8.0 mph 95 % 0.0 in
00:23 6.1 °F 5.4 °F 1021.9 in NNW 1.4 mph 9.7 mph 95 % 0.0 in
00:27 6.0 °F 5.3 °F 1021.9 in North 3.2 mph 6.4 mph 95 % 0.0 in
00:33 6.0 °F 5.3 °F 1021.9 in NNE 3.2 mph 9.7 mph 95 % 0.0 in
00:39 6.0 °F 5.3 °F 1021.9 in NNE 4.7 mph 9.7 mph 95 % 0.0 in
00:49 6.1 °F 5.4 °F 1021.9 in NNE 7.9 mph 11.3 mph 95 % 0.0 in
01:01 6.2 °F 5.5 °F 1021.9 in NNE 6.4 mph 14.5 mph 95 % 0.0 in
01:07 6.2 °F 5.5 °F 1021.9 in NE 3.2 mph 8.0 mph 95 % 0.0 in
01:13 6.2 °F 5.5 °F 1022.2 in NNE 7.9 mph 11.3 mph 95 % 0.0 in
01:19 6.2 °F 5.5 °F 1022.2 in North 1.4 mph 4.8 mph 95 % 0.0 in
01:23 6.2 °F 5.5 °F 1022.2 in NE 4.7 mph 9.7 mph 95 % 0.0 in
01:29 6.2 °F 5.6 °F 1022.2 in NNE 1.4 mph 6.4 mph 96 % 0.0 in
01:35 6.2 °F 5.6 °F 1022.2 in NNE 4.7 mph 8.0 mph 96 % 0.0 in
01:41 6.2 °F 5.6 °F 1022.2 in NNE 3.2 mph 9.7 mph 96 % 0.0 in
01:47 6.2 °F 5.6 °F 1022.2 in NNW 4.7 mph 6.4 mph 96 % 0.0 in
01:55 6.2 °F 5.6 °F 1022.2 in NE 6.4 mph 14.5 mph 96 % 0.0 in
01:59 6.2 °F 5.6 °F 1022.2 in NW 4.7 mph 9.7 mph 96 % 0.0 in
02:09 6.2 °F 5.6 °F 1022.2 in NE 7.9 mph 14.5 mph 96 % 0.0 in
02:15 6.2 °F 5.6 °F 1022.6 in NE 3.2 mph 11.3 mph 96 % 0.0 in
02:21 6.2 °F 5.6 °F 1022.2 in NNW 4.7 mph 14.5 mph 96 % 0.0 in
02:27 6.1 °F 5.5 °F 1022.6 in NE 7.9 mph 14.5 mph 96 % 0.0 in
02:33 6.1 °F 5.5 °F 1022.6 in NW 9.7 mph 12.9 mph 96 % 0.3 in
02:39 6.1 °F 5.5 °F 1022.6 in NNW 6.4 mph 14.5 mph 96 % 0.5 in
02:45 6.1 °F 5.5 °F 1022.6 in NNW 4.7 mph 9.7 mph 96 % 0.5 in
02:51 6.0 °F 5.4 °F 1022.6 in NW 4.7 mph 11.3 mph 96 % 0.5 in
03:03 6.0 °F 5.4 °F 1022.9 in North 13.0 mph 13.0 mph 96 % 1.3 in
03:09 6.0 °F 5.4 °F 1022.9 in NNW 3.2 mph 9.7 mph 96 % 1.5 in
03:21 5.9 °F 5.3 °F 1022.9 in NW 6.4 mph 11.3 mph 96 % 1.5 in
03:27 5.9 °F 5.3 °F 1022.9 in NNW 6.4 mph 11.3 mph 96 % 1.5 in
03:33 6.0 °F 5.4 °F 1022.9 in North 9.7 mph 14.5 mph 96 % 1.5 in
03:39 5.9 °F 5.3 °F 1022.9 in NNE 6.4 mph 12.9 mph 96 % 1.3 in
03:45 5.9 °F 5.3 °F 1022.9 in North 9.7 mph 11.3 mph 96 % 1.0 in
03:51 5.9 °F 5.3 °F 1022.9 in NNE 3.2 mph 12.9 mph 96 % 1.0 in
03:57 5.9 °F 5.3 °F 1022.9 in NNE 4.7 mph 14.5 mph 96 % 0.8 in
04:09 5.9 °F 5.3 °F 1022.9 in North 7.9 mph 14.5 mph 96 % 0.3 in
04:15 5.8 °F 5.2 °F 1022.9 in North 7.9 mph 12.9 mph 96 % 0.0 in
04:21 5.8 °F 5.2 °F 1022.9 in NNE 7.9 mph 17.7 mph 96 % 0.0 in
04:28 5.7 °F 5.1 °F 1022.9 in North 7.9 mph 11.3 mph 96 % 0.0 in
04:34 5.7 °F 5.1 °F 1022.9 in North 6.4 mph 12.9 mph 96 % 0.0 in
04:40 5.7 °F 5.1 °F 1022.9 in ENE 1.4 mph 14.5 mph 96 % 0.0 in
04:52 5.7 °F 5.1 °F 1022.9 in NNW 4.7 mph 14.5 mph 96 % 0.0 in
05:00 5.7 °F 5.1 °F 1022.9 in North 6.4 mph 12.9 mph 96 % 0.0 in
05:06 5.7 °F 5.1 °F 1023.2 in North 14.3 mph 14.5 mph 96 % 0.0 in
05:12 5.7 °F 5.1 °F 1023.2 in NNW 4.7 mph 12.9 mph 96 % 0.0 in
05:18 5.7 °F 5.0 °F 1023.2 in North 6.4 mph 12.9 mph 95 % 0.0 in
05:24 5.7 °F 5.0 °F 1023.2 in NNW 7.9 mph 12.9 mph 95 % 0.0 in
05:30 5.7 °F 5.0 °F 1023.2 in North 1.4 mph 6.4 mph 95 % 0.0 in
05:42 5.6 °F 4.9 °F 1022.9 in North 7.9 mph 9.7 mph 95 % 0.0 in
05:48 5.5 °F 4.8 °F 1023.2 in NNW 3.2 mph 8.0 mph 95 % 0.0 in
05:50 5.5 °F 4.8 °F 1023.2 in NNW 6.4 mph 9.7 mph 95 % 0.0 in
05:56 5.4 °F 4.7 °F 1023.2 in NNE 1.4 mph 6.4 mph 95 % 0.0 in
06:02 5.5 °F 4.9 °F 1023.2 in NNW 4.7 mph 6.4 mph 96 % 0.0 in
06:08 5.6 °F 5.0 °F 1023.2 in West 3.2 mph 8.0 mph 96 % 0.0 in
06:14 5.6 °F 5.0 °F 1023.6 in Calm   3.2 mph 96 % 0.0 in
06:20 5.7 °F 5.1 °F 1023.6 in North 6.4 mph 8.0 mph 96 % 0.0 in
06:26 5.7 °F 5.1 °F 1023.6 in North 3.2 mph 11.3 mph 96 % 0.0 in
06:32 5.7 °F 5.1 °F 1023.6 in NNE 3.2 mph 9.7 mph 96 % 0.0 in
06:38 5.7 °F 5.1 °F 1023.9 in NE 9.7 mph 9.7 mph 96 % 0.0 in
06:44 5.7 °F 5.1 °F 1023.9 in NW 1.4 mph 9.7 mph 96 % 0.0 in
06:50 5.7 °F 5.1 °F 1023.9 in North 1.4 mph 12.9 mph 96 % 0.0 in
07:02 5.7 °F 5.1 °F 1023.9 in NNE 7.9 mph 8.0 mph 96 % 0.0 in
07:26 5.7 °F 5.1 °F 1023.9 in NE 4.7 mph 11.3 mph 96 % 0.0 in
07:32 5.7 °F 5.1 °F 1023.9 in NNW 4.7 mph 12.9 mph 96 % 0.0 in
07:44 5.7 °F 5.3 °F 1023.9 in North 4.7 mph 9.7 mph 97 % 0.0 in
07:50 5.7 °F 5.3 °F 1023.9 in North 6.4 mph 8.0 mph 97 % 0.0 in
08:02 5.7 °F 5.3 °F 1023.9 in North 7.9 mph 8.0 mph 97 % 0.0 in
08:08 5.7 °F 5.3 °F 1024.3 in North 6.4 mph 8.0 mph 97 % 0.0 in
08:14 5.7 °F 5.3 °F 1024.3 in NNW 1.4 mph 8.0 mph 97 % 0.0 in
08:24 5.7 °F 5.3 °F 1024.3 in NE 4.7 mph 8.0 mph 97 % 0.0 in
08:30 5.7 °F 5.3 °F 1024.3 in North 3.2 mph 8.0 mph 97 % 0.0 in
08:36 5.7 °F 5.3 °F 1024.3 in NNW 3.2 mph 8.0 mph 97 % 0.0 in
09:06 5.7 °F 5.3 °F 1024.3 in NNW 4.7 mph 9.7 mph 97 % 0.0 in
09:18 5.7 °F 5.3 °F 1024.3 in NNW 4.7 mph 9.7 mph 97 % 0.0 in
09:24 5.7 °F 5.3 °F 1024.6 in North 4.7 mph 11.3 mph 97 % 0.0 in
09:30 5.6 °F 5.0 °F 1024.6 in NNW 4.7 mph 6.4 mph 96 % 0.0 in
09:36 5.6 °F 5.0 °F 1024.6 in NNE 4.7 mph 9.7 mph 96 % 0.0 in
09:42 5.6 °F 5.0 °F 1024.9 in North 1.4 mph 4.8 mph 96 % 0.0 in
09:48 5.6 °F 5.0 °F 1024.9 in NE 3.2 mph 6.4 mph 96 % 0.0 in
09:54 5.7 °F 5.1 °F 1024.9 in NE 7.9 mph 8.0 mph 96 % 0.0 in
10:04 5.7 °F 5.1 °F 1024.9 in North 3.2 mph 3.2 mph 96 % 0.0 in
10:10 5.8 °F 5.1 °F 1024.9 in Calm   6.4 mph 95 % 0.0 in
10:22 5.9 °F 5.2 °F 1025.3 in NNE 3.2 mph 4.8 mph 95 % 0.0 in
10:30 5.9 °F 5.2 °F 1025.3 in Calm   4.8 mph 95 % 0.0 in
10:36 5.9 °F 5.2 °F 1025.3 in North 1.4 mph 3.2 mph 95 % 0.0 in
10:42 6.0 °F 5.3 °F 1025.6 in NNW 1.4 mph 4.8 mph 95 % 0.0 in
10:48 6.0 °F 5.3 °F 1025.6 in NNW 4.7 mph 4.8 mph 95 % 0.0 in
10:55 6.1 °F 5.4 °F 1025.6 in NNW 1.4 mph 6.4 mph 95 % 0.0 in
11:01 6.1 °F 5.4 °F 1025.6 in North 9.7 mph 9.7 mph 95 % 0.0 in
11:07 6.1 °F 5.4 °F 1025.6 in NNE 3.2 mph 4.8 mph 95 % 0.0 in
11:13 6.1 °F 5.4 °F 1025.6 in North 3.2 mph 4.8 mph 95 % 0.0 in
11:21 6.1 °F 5.4 °F 1025.6 in NNW 4.7 mph 12.9 mph 95 % 0.0 in
11:27 6.2 °F 5.5 °F 1025.6 in NW 4.7 mph 8.0 mph 95 % 0.0 in
11:39 6.2 °F 5.3 °F 1025.6 in NNW 3.2 mph 11.3 mph 94 % 0.0 in
11:47 6.3 °F 5.4 °F 1025.6 in North 7.9 mph 8.0 mph 94 % 0.0 in
11:53 6.3 °F 5.4 °F 1025.6 in NNW 4.7 mph 8.0 mph 94 % 0.0 in
12:01 6.4 °F 5.4 °F 1025.6 in NNW 3.2 mph 8.0 mph 93 % 0.0 in
12:07 6.4 °F 5.4 °F 1025.3 in NNE 7.9 mph 12.9 mph 93 % 0.0 in
12:13 6.3 °F 5.3 °F 1025.3 in NW 7.9 mph 14.5 mph 93 % 0.0 in
12:19 6.3 °F 5.3 °F 1025.3 in NNW 7.9 mph 9.7 mph 93 % 0.0 in
12:25 6.3 °F 5.3 °F 1025.3 in North 7.9 mph 11.3 mph 93 % 0.0 in
12:31 6.3 °F 5.3 °F 1025.3 in NNW 4.7 mph 12.9 mph 93 % 0.0 in
12:37 6.4 °F 5.4 °F 1025.3 in NNE 7.9 mph 9.7 mph 93 % 0.0 in
12:43 6.4 °F 5.2 °F 1025.3 in NNW 9.7 mph 12.9 mph 92 % 0.0 in
12:49 6.4 °F 5.2 °F 1025.3 in North 1.4 mph 9.7 mph 92 % 0.0 in
12:55 6.6 °F 5.4 °F 1025.3 in NNE 9.7 mph 11.3 mph 92 % 0.0 in
13:07 6.6 °F 5.4 °F 1024.9 in NW 13.0 mph 14.5 mph 92 % 0.0 in
13:13 6.7 °F 5.5 °F 1024.9 in NE 6.4 mph 11.3 mph 92 % 0.0 in
13:19 6.8 °F 5.6 °F 1024.9 in North 3.2 mph 11.3 mph 92 % 0.0 in
13:25 6.9 °F 5.5 °F 1024.9 in North 14.3 mph 14.5 mph 91 % 0.0 in
13:31 6.9 °F 5.5 °F 1024.9 in North 6.4 mph 8.0 mph 91 % 0.0 in
13:37 6.9 °F 5.5 °F 1024.9 in NNE 3.2 mph 6.4 mph 91 % 0.0 in
13:43 6.9 °F 5.5 °F 1024.6 in NE 7.9 mph 11.3 mph 91 % 0.0 in
13:49 6.9 °F 5.4 °F 1024.6 in NNW 4.7 mph 14.5 mph 90 % 0.0 in
13:55 7.1 °F 5.6 °F 1024.6 in ENE 6.4 mph 11.3 mph 90 % 0.0 in
14:01 7.1 °F 5.4 °F 1024.6 in NNW 4.7 mph 16.1 mph 89 % 0.0 in
14:07 7.1 °F 5.2 °F 1024.6 in NNE 4.7 mph 14.5 mph 88 % 0.0 in
14:13 7.1 °F 5.4 °F 1024.6 in North 4.7 mph 12.9 mph 89 % 0.0 in
14:19 7.1 °F 5.4 °F 1024.6 in NNE 3.2 mph 11.3 mph 89 % 0.0 in
14:31 7.1 °F 5.2 °F 1024.6 in NE 3.2 mph 9.7 mph 88 % 0.0 in
14:37 7.1 °F 5.2 °F 1024.3 in NNW 4.7 mph 12.9 mph 88 % 0.0 in
14:43 7.0 °F 5.1 °F 1024.3 in NNE 4.7 mph 12.9 mph 88 % 0.0 in
14:49 6.9 °F 5.1 °F 1024.3 in NNW 7.9 mph 9.7 mph 88 % 0.0 in
14:55 6.9 °F 5.1 °F 1024.3 in NW 3.2 mph 8.0 mph 88 % 0.0 in
15:01 6.9 °F 5.1 °F 1024.3 in North 4.7 mph 9.7 mph 88 % 0.0 in
15:07 6.8 °F 5.1 °F 1024.3 in NNW 6.4 mph 6.4 mph 89 % 0.0 in
15:13 6.9 °F 5.2 °F 1024.3 in NNE 7.9 mph 9.7 mph 89 % 0.0 in
15:19 6.9 °F 5.2 °F 1024.3 in North 3.2 mph 6.4 mph 89 % 0.0 in
15:25 6.9 °F 5.2 °F 1024.3 in NNW 1.4 mph 6.4 mph 89 % 0.0 in
15:31 7.0 °F 5.3 °F 1024.3 in North 3.2 mph 4.8 mph 89 % 0.0 in
15:37 7.1 °F 5.4 °F 1024.3 in North 1.4 mph 4.8 mph 89 % 0.0 in
15:43 7.1 °F 5.4 °F 1024.3 in NW 1.4 mph 3.2 mph 89 % 0.0 in
15:49 7.0 °F 5.1 °F 1024.3 in NE 4.7 mph 6.4 mph 88 % 0.0 in
15:55 6.9 °F 5.2 °F 1024.3 in NNE 6.4 mph 9.7 mph 89 % 0.0 in
16:15 6.9 °F 5.2 °F 1024.3 in Calm   6.4 mph 89 % 0.0 in
16:21 6.9 °F 5.4 °F 1024.6 in North 1.4 mph 3.2 mph 90 % 0.0 in
16:31 6.9 °F 5.2 °F 1024.3 in North 1.4 mph 3.2 mph 89 % 0.0 in
16:37 6.9 °F 5.2 °F 1024.3 in North 3.2 mph 3.2 mph 89 % 0.0 in
16:43 6.9 °F 5.2 °F 1024.6 in NNW 1.4 mph 3.2 mph 89 % 0.0 in
16:49 6.9 °F 5.2 °F 1024.3 in NNE 1.4 mph 1.6 mph 89 % 0.0 in
16:55 6.9 °F 5.4 °F 1024.6 in NW 1.4 mph 1.6 mph 90 % 0.0 in
17:01 6.8 °F 5.3 °F 1024.6 in NW 1.4 mph 3.2 mph 90 % 0.0 in
17:07 6.9 °F 5.4 °F 1024.6 in WNW 1.4 mph 4.8 mph 90 % 0.0 in
17:13 6.8 °F 5.3 °F 1024.6 in West 1.4 mph 8.0 mph 90 % 0.0 in
17:19 6.8 °F 5.3 °F 1024.6 in WNW 3.2 mph 8.0 mph 90 % 0.0 in
17:29 6.6 °F 5.2 °F 1024.6 in NW 6.4 mph 11.3 mph 91 % 0.0 in
17:37 6.4 °F 5.0 °F 1024.6 in NNW 4.7 mph 8.0 mph 91 % 0.0 in
17:43 6.4 °F 5.0 °F 1024.6 in NNW 1.4 mph 4.8 mph 91 % 0.0 in
17:55 6.4 °F 5.2 °F 1024.6 in North 4.7 mph 6.4 mph 92 % 0.0 in
18:01 6.4 °F 5.2 °F 1024.6 in NNW 3.2 mph 4.8 mph 92 % 0.0 in
18:11 6.4 °F 5.2 °F 1024.6 in NW 1.4 mph 4.8 mph 92 % 0.0 in
18:18 6.4 °F 5.2 °F 1024.9 in NNW 3.2 mph 8.0 mph 92 % 0.0 in
18:24 6.4 °F 5.2 °F 1024.9 in NNW 4.7 mph 4.8 mph 92 % 0.0 in
18:36 6.3 °F 5.1 °F 1024.9 in NW 1.4 mph 6.4 mph 92 % 0.0 in
18:42 6.3 °F 5.1 °F 1024.9 in NNW 1.4 mph 4.8 mph 92 % 0.0 in
18:48 6.3 °F 5.1 °F 1024.9 in Calm   6.4 mph 92 % 0.0 in
18:56 6.3 °F 5.1 °F 1024.9 in NW 1.4 mph 8.0 mph 92 % 0.0 in
19:02 6.3 °F 5.1 °F 1024.9 in Calm   6.4 mph 92 % 0.0 in
19:14 6.2 °F 5.0 °F 1024.9 in NW 3.2 mph 4.8 mph 92 % 0.0 in
19:20 6.1 °F 4.9 °F 1024.9 in Calm   4.8 mph 92 % 0.0 in
19:26 6.0 °F 5.0 °F 1024.9 in NNW 4.7 mph 6.4 mph 93 % 0.0 in
19:32 5.9 °F 4.9 °F 1024.9 in NNW 1.4 mph 3.2 mph 93 % 0.0 in
19:38 5.8 °F 4.8 °F 1024.9 in Calm   3.2 mph 93 % 0.0 in
19:44 5.7 °F 4.7 °F 1024.9 in NW 1.4 mph 1.6 mph 93 % 0.0 in
19:50 5.6 °F 4.6 °F 1024.9 in NNW 1.4 mph 1.6 mph 93 % 0.0 in
19:56 5.4 °F 4.5 °F 1024.9 in NW 3.2 mph 4.8 mph 94 % 0.0 in
20:02 5.4 °F 4.5 °F 1024.9 in NNW 3.2 mph 4.8 mph 94 % 0.0 in
20:08 5.3 °F 4.4 °F 1024.9 in NNW 1.4 mph 4.8 mph 94 % 0.0 in
20:14 5.3 °F 4.4 °F 1024.9 in Calm   4.8 mph 94 % 0.0 in
20:26 5.1 °F 4.2 °F 1024.9 in NW 4.7 mph 4.8 mph 94 % 0.0 in
20:32 5.0 °F 4.1 °F 1024.9 in NNW 1.4 mph 4.8 mph 94 % 0.0 in
20:38 4.9 °F 4.0 °F 1024.9 in NNW 3.2 mph 4.8 mph 94 % 0.0 in
20:44 4.8 °F 3.9 °F 1024.9 in North 1.4 mph 3.2 mph 94 % 0.0 in
20:50 4.7 °F 3.8 °F 1024.9 in NNW 1.4 mph 1.6 mph 94 % 0.0 in
20:56 4.6 °F 3.9 °F 1024.9 in Calm   3.2 mph 95 % 0.0 in
21:08 4.5 °F 3.8 °F 1024.9 in Calm     95 % 0.0 in
21:16 4.4 °F 3.7 °F 1024.9 in Calm   1.6 mph 95 % 0.0 in
21:22 4.2 °F 3.5 °F 1024.9 in Calm   1.6 mph 95 % 0.0 in
21:29 4.2 °F 3.5 °F 1024.9 in North 1.4 mph 1.6 mph 95 % 0.0 in
21:39 4.3 °F 3.7 °F 1024.9 in NW 3.2 mph 4.8 mph 96 % 0.0 in
21:45 4.2 °F 3.6 °F 1024.9 in NW 1.4 mph 3.2 mph 96 % 0.0 in
21:51 4.3 °F 3.7 °F 1024.9 in NW 1.4 mph 3.2 mph 96 % 0.0 in
22:01 4.3 °F 3.7 °F 1024.9 in NW 1.4 mph 1.6 mph 96 % 0.0 in
22:07 4.3 °F 3.7 °F 1024.9 in NNW 1.4 mph 3.2 mph 96 % 0.0 in
22:17 4.0 °F 3.4 °F 1024.9 in Calm   3.2 mph 96 % 0.0 in
22:25 4.0 °F 3.4 °F 1024.6 in NNE 1.4 mph 3.2 mph 96 % 0.0 in
22:31 3.9 °F 3.3 °F 1024.6 in Calm   1.6 mph 96 % 0.0 in
22:37 4.0 °F 3.4 °F 1024.6 in Calm   1.6 mph 96 % 0.0 in
22:43 3.8 °F 3.2 °F 1024.6 in Calm   1.6 mph 96 % 0.0 in
22:49 3.7 °F 3.1 °F 1024.6 in Calm   1.6 mph 96 % 0.0 in
22:55 3.7 °F 3.1 °F 1024.6 in Calm   1.6 mph 96 % 0.0 in
23:07 3.8 °F 3.4 °F 1024.6 in NW 1.4 mph 3.2 mph 97 % 0.0 in
23:13 3.8 °F 3.4 °F 1024.6 in NW 1.4 mph 3.2 mph 97 % 0.0 in
23:21 3.8 °F 3.4 °F 1024.6 in Calm   3.2 mph 97 % 0.0 in
23:27 3.8 °F 3.4 °F 1024.6 in NNW 1.4 mph 1.6 mph 97 % 0.0 in
23:33 3.8 °F 3.4 °F 1024.6 in NNW 1.4 mph 3.2 mph 97 % 0.0 in
23:39 3.7 °F 3.3 °F 1024.6 in Calm   3.2 mph 97 % 0.0 in
23:45 3.7 °F 3.3 °F 1024.6 in NNW 1.4 mph 3.2 mph 97 % 0.0 in
23:51 3.6 °F 3.2 °F 1024.6 in NNW 1.4 mph 3.2 mph 97 % 0.0 in
23:58 3.4 °F 3.0 °F 1024.6 in NNW 1.4 mph 1.6 mph 97 % 0.0 in
Meteo18
Compliments of Weather Underground - 4 mb

Script developed by  Jim McMurry - jmcmurry@mwt.net Adapted for the template by  Wim van der Kuil - Leuven-Template.eu

You find our weather info also at:

European Weather Network

Weather Underground

Equipment we use:

Weather-station
Davis Vue

Weather-program
Meteobridge

Weather-server
Raspberry PI 2 B+

Provider
1 and 1

Davis Vue

Meteobridge

Raspberry PI 2 B+

1 and 1